Terminal Aerodrome Forecast
Issued by NWS

Home | Current Version | Previous Version | Text Only | Print | Product List | Glossary On
Versions: 1 2 3 4 5 6 7 8 9 10 11 12 13 14 15 16 17
000
FTUS42 KGSP 290523
TAFGMU
TAF
KGMU 290523Z 2906/3006 36004KT P6SM SKC
     FM291300 14003KT P6SM SKC
     FM291600 19007KT P6SM FEW250=

USA.gov is the U.S. government's official web portal to all federal, state and local government web resources and services.